Wind_Speed
14 6 8 8 6 6 5 4 2 1 1 1 1 2 3 0 1 0 2 3 3 4 5 5 4 3 3 3 3 3 4 4 3 4 6 8 8 11 13 16 13 7 11
6 11 8 7 5 4 3 2 0 2 3 3 3 2 1 1 2 3 3 4 4 4 5 5 5 5 4 4 4 5 5 5 4 4 6 7 8 12 14 13 11 9 9
10 11 9 6 5 3 2 1 2 3 4 5 5 5 5 4 5 5 5 5 5 5 6 7 8 7 6 6 6 6 6 6 5 3 4 4 7 11 11 11 10 8 9
17 6 8 6 4 2 1 2 3 4 5 5 7 7 8 8 8 7 7 7 7 7 8 8 9 10 9 8 8 7 7 7 5 3 7 7 7 9 11 10 11 8 10
12 6 5 6 5 3 2 3 5 6 7 7 8 8 10 10 11 11 10 10 10 9 9 9 10 11 11 10 9 8 8 8 6 6 10 10 9 8 11 11 9 8 10
6 3 5 3 2 2 1 3 6 7 9 9 10 10 10 11 12 13 14 13 13 13 12 11 11 12 12 11 10 9 9 9 7 9 13 21 20 9 9 10 9 10 12
5 5 5 3 1 2 4 5 7 9 10 11 11 11 11 13 13 15 16 15 15 15 15 13 12 13 13 12 11 10 10 11 9 9 13 14 11 3 8 11 9 11 13
4 4 4 2 2 4 5 7 9 9 10 11 10 11 12 14 16 17 18 18 17 17 16 16 14 14 14 14 13 12 12 11 11 11 8 11 9 10 9 11 11 12 14
4 3 2 2 4 6 8 7 9 9 10 10 11 12 13 14 16 19 20 21 20 19 19 18 17 17 16 16 15 14 13 13 13 13 8 13 19 12 11 9 14 14 15
3 3 4 5 6 7 8 9 10 10 9 10 10 11 13 14 15 17 21 22 22 21 20 20 20 20 20 19 18 17 16 15 16 15 15 12 16 12 13 12 15 15 17
4 4 5 6 7 7 8 6 8 9 11 12 12 13 13 13 13 16 17 19 22 22 24 23 23 24 23 22 21 20 19 19 18 17 19 12 13 18 18 14 16 17 18
7 6 6 6 7 8 8 8 8 8 11 12 14 14 14 13 13 14 14 16 19 21 27 26 28 29 28 26 25 23 24 21 20 21 19 20 17 22 20 17 16 19 20
9 9 9 10 10 11 11 11 12 12 13 14 16 17 16 16 16 15 15 13 13 16 22 26 30 34 31 29 27 24 22 21 18 20 20 24 17 23 20 17 17 19 20
9 10 10 10 11 12 13 14 15 15 16 16 18 20 20 20 19 19 18 18 16 14 17 20 25 30 28 31 34 27 27 30 25 17 20 24 21 22 20 20 21 20 21
8 10 10 11 12 14 15 16 17 17 18 18 18 21 22 24 23 24 22 20 17 12 17 21 24 26 28 33 32 28 27 27 25 22 20 24 20 20 24 25 23 22 22
8 11 13 14 15 16 17 17 18 18 19 19 18 22 23 24 26 26 25 25 22 17 13 20 24 21 25 33 34 28 36 30 30 28 21 18 20 26 29 26 22 24 23
7 10 13 15 18 19 20 21 22 22 23 23 22 23 23 24 27 28 27 27 25 23 24 25 21 17 21 23 24 29 36 31 40 37 21 23 22 20 25 25 20 25 25
8 11 14 16 18 19 21 22 24 24 26 23 24 26 23 26 26 28 29 29 29 29 29 29 27 19 19 26 25 23 24 27 33 38 39 39 28 39 34 28 23 23 27
9 10 12 14 17 19 21 22 23 25 26 26 27 26 23 28 30 30 28 27 29 32 30 29 29 24 21 18 25 24 25 25 25 30 37 42 36 32 37 30 28 24 27
7 9 11 14 16 19 21 23 24 26 26 27 28 25 27 28 25 28 27 28 28 28 29 27 24 27 26 27 25 20 21 25 29 27 30 32 41 36 41 39 34 30 31
8 9 11 14 17 20 23 26 27 29 29 29 28 24 23 25 26 26 26 26 24 26 26 26 29 29 31 28 28 27 29 27 31 33 30 31 33 41 40 39 36 36 33
6 8 10 13 17 20 22 23 23 26 26 25 23 26 27 29 29 30 29 29 25 29 31 27 22 25 28 25 24 23 20 22 27 28 30 34 38 39 50 55 44 40 40
6 8 9 13 15 18 21 21 23 24 24 25 28 28 27 31 33 33 32 30 31 28 28 27 29 23 23 22 21 19 10 15 21 27 31 28 29 33 44 51 52 47 44
5 7 9 11 12 14 18 20 23 24 25 26 26 30 32 29 26 26 24 25 26 26 26 25 23 29 30 28 24 24 27 28 19 18 18 20 27 31 33 46 50 48 46
2 5 8 9 9 14 16 18 21 23 25 26 27 27 26 26 23 23 23 24 26 27 27 29 30 26 29 34 28 26 21 24 25 23 26 35 28 21 34 36 44 44 43
2 5 6 8 8 14 15 16 19 22 24 27 27 28 27 26 26 24 24 26 27 24 23 24 24 25 29 29 35 33 26 17 14 15 17 27 26 32 24 25 34 35 39
Wind_Direction
83 119 134 121 112 99 98 97 84 29 21 346 26 56 49 29 194 166 307 305 277 220 211 207 211 228 248 271 268 278 295 299 268 220 191 173 157 139 126 122 116 110 125
75 130 125 123 122 118 120 117 82 313 309 290 280 264 272 264 235 249 271 288 283 265 239 227 230 236 243 264 277 292 297 292 256 224 189 172 152 144 146 139 137 141 143
83 120 128 129 127 136 169 209 249 277 290 290 275 269 260 254 249 254 249 268 273 271 255 247 245 250 253 270 282 292 292 284 270 215 163 160 171 165 160 152 147 142 160
124 97 124 131 136 150 221 264 279 283 284 282 278 265 264 259 251 258 254 253 260 266 263 254 253 255 258 271 281 287 280 275 275 201 159 187 220 191 175 170 152 157 169
128 147 151 149 150 164 220 271 281 280 277 274 270 266 259 262 258 259 261 264 259 257 261 259 255 253 256 265 279 284 278 271 266 211 199 207 214 207 192 186 169 168 172
89 117 112 125 165 215 259 289 290 287 286 280 274 266 261 253 256 257 254 260 264 259 256 255 256 250 253 263 274 277 275 271 259 232 212 235 192 187 194 202 186 175 187
92 87 105 95 47 358 339 320 309 303 297 289 284 277 266 263 254 253 257 257 261 260 260 256 258 257 257 261 268 270 268 266 261 238 254 293 175 243 217 208 203 194 195
150 92 85 68 5 341 335 335 331 331 325 310 292 283 276 267 263 259 255 256 257 257 260 261 258 258 262 267 267 265 265 261 258 230 231 246 244 265 241 227 213 212 205
84 56 43 2 333 321 318 328 325 330 328 322 311 295 282 271 268 267 263 259 257 254 255 258 261 259 260 262 263 262 260 255 251 219 231 256 269 264 264 253 221 216 212
32 350 328 317 314 318 325 328 334 331 316 315 315 312 296 283 277 272 272 268 264 262 260 258 258 259 257 257 259 257 255 247 244 237 232 262 250 248 254 253 229 219 214
358 337 325 325 334 335 340 342 332 330 320 315 309 312 308 299 293 280 276 274 267 265 265 260 257 259 258 253 254 254 251 248 242 237 227 259 249 246 257 255 235 222 218
357 343 342 345 350 351 352 345 338 335 334 330 323 324 318 312 301 297 294 286 274 259 255 255 256 254 251 253 251 254 251 249 247 245 225 244 239 229 242 257 243 225 220
2 357 1 1 360 359 353 350 341 337 331 328 329 322 325 324 320 309 302 294 284 275 264 258 256 255 256 253 250 250 252 251 248 261 235 252 241 249 249 263 247 229 223
2 8 6 2 356 353 348 347 343 339 331 333 325 318 315 313 312 310 313 313 308 293 278 268 264 262 262 256 251 235 247 253 248 255 231 251 255 238 260 260 245 233 227
14 3 2 353 351 349 344 342 338 331 326 323 320 312 312 307 306 303 301 300 299 304 317 288 274 267 260 257 255 238 242 246 243 246 240 243 247 254 259 257 251 234 230
19 2 2 357 354 352 346 342 336 330 324 321 316 306 305 301 296 294 295 290 289 279 264 280 287 281 276 278 271 251 252 251 251 239 220 234 253 241 253 253 250 234 232
15 1 360 357 352 351 347 342 339 335 331 329 323 315 315 304 299 297 294 289 285 275 265 263 277 289 286 287 271 259 260 238 250 253 245 235 240 254 254 257 258 243 238
9 10 359 355 348 347 344 341 337 336 333 331 320 319 322 303 300 294 291 288 286 280 274 270 270 269 269 282 284 266 271 255 248 247 246 236 239 250 255 259 252 249 241
7 360 351 347 342 341 336 332 330 327 325 319 316 317 311 303 308 305 295 287 282 281 278 277 275 269 263 265 281 288 267 258 262 255 253 240 257 259 234 241 245 248 247
353 349 344 339 338 338 333 329 325 321 317 315 312 311 305 313 305 304 305 297 288 285 281 277 274 266 259 254 251 257 275 270 261 254 256 256 247 235 245 241 240 235 242
345 344 348 345 344 341 336 336 331 329 327 322 318 320 299 292 300 294 293 291 285 282 278 276 273 271 266 260 263 267 258 261 266 269 260 257 253 248 238 233 239 239 235
343 341 351 347 347 339 340 341 334 328 327 321 312 292 291 290 286 287 290 295 299 282 272 266 266 280 272 265 267 274 277 268 262 272 269 261 257 250 247 245 245 240 238
326 336 352 347 348 337 342 339 333 334 327 322 312 311 296 290 290 292 294 294 293 295 292 285 263 267 274 266 257 255 272 243 259 266 265 261 266 265 252 244 241 242 244
317 331 347 356 348 337 342 346 346 344 337 329 318 310 310 316 313 313 309 303 297 291 285 286 286 256 254 264 254 246 259 265 281 286 263 265 268 271 264 249 245 246 243
328 331 338 358 348 333 346 346 349 346 344 341 335 328 327 325 326 320 315 309 303 298 286 279 276 276 261 251 255 255 252 260 258 271 272 270 259 272 265 259 246 245 244
302 323 342 355 348 328 344 342 344 345 349 347 344 341 337 338 334 328 321 320 316 310 300 283 275 272 269 267 250 247 249 265 261 284 269 266 271 270 271 260 250 243 242
Height
1495 1513 1518 1519 1521 1522 1523 1523 1524 1526 1526 1527 1527 1528 1528 1528 1528 1529 1530 1531 1532 1532 1533 1533 1533 1534 1534 1534 1534 1534 1534 1533 1532 1530 1530 1530 1531 1531 1532 1533 1535 1537 1538
1510 1516 1518 1520 1521 1522 1523 1524 1525 1526 1527 1527 1528 1529 1529 1529 1529 1529 1530 1531 1532 1533 1533 1533 1533 1534 1534 1534 1534 1534 1533 1531 1530 1530 1532 1534 1534 1535 1533 1532 1534 1537 1539
1515 1516 1518 1520 1520 1522 1524 1524 1525 1526 1527 1527 1528 1528 1529 1530 1530 1529 1530 1531 1532 1532 1533 1533 1533 1534 1533 1533 1533 1533 1532 1530 1530 1532 1534 1534 1534 1535 1535 1534 1533 1537 1540
1515 1517 1518 1520 1521 1523 1524 1525 1525 1526 1526 1526 1527 1528 1529 1530 1530 1530 1530 1530 1531 1531 1532 1532 1532 1533 1533 1533 1532 1532 1531 1529 1531 1533 1533 1532 1533 1534 1536 1536 1535 1537 1540
1514 1517 1519 1520 1521 1522 1524 1525 1525 1525 1525 1525 1526 1527 1527 1528 1529 1530 1530 1530 1530 1530 1530 1530 1531 1531 1531 1532 1531 1531 1529 1529 1531 1533 1531 1530 1532 1532 1534 1538 1535 1537 1540
1519 1520 1521 1522 1523 1523 1524 1524 1525 1525 1525 1525 1525 1526 1526 1526 1528 1529 1529 1529 1529 1529 1529 1529 1529 1529 1529 1529 1529 1529 1528 1527 1530 1530 1528 1519 1516 1527 1532 1538 1536 1537 1540
1521 1522 1522 1523 1523 1524 1524 1524 1524 1524 1524 1524 1525 1525 1525 1525 1525 1526 1527 1527 1527 1528 1528 1528 1528 1528 1527 1527 1527 1527 1527 1525 1527 1528 1528 1526 1528 1526 1532 1535 1536 1537 1540
1522 1522 1523 1524 1524 1524 1524 1524 1524 1523 1523 1523 1523 1523 1523 1523 1523 1524 1524 1525 1525 1526 1527 1527 1526 1526 1526 1525 1525 1525 1525 1524 1524 1525 1526 1525 1524 1526 1528 1530 1533 1537 1539
1523 1524 1524 1524 1524 1524 1524 1523 1523 1522 1522 1522 1522 1521 1521 1521 1521 1522 1522 1523 1524 1524 1526 1526 1526 1525 1523 1523 1522 1522 1522 1522 1522 1522 1521 1524 1526 1528 1527 1527 1531 1535 1538
1523 1523 1523 1524 1524 1523 1523 1522 1522 1522 1520 1520 1520 1519 1519 1519 1519 1520 1520 1521 1522 1525 1526 1525 1524 1523 1521 1520 1519 1519 1519 1518 1519 1520 1522 1526 1526 1526 1529 1528 1528 1532 1535
1522 1522 1522 1523 1523 1522 1522 1522 1522 1521 1520 1519 1519 1518 1517 1516 1516 1516 1516 1518 1514 1520 1523 1522 1520 1520 1518 1516 1516 1516 1515 1515 1514 1516 1521 1524 1522 1524 1528 1528 1525 1528 1532
1522 1521 1522 1522 1522 1522 1521 1521 1521 1520 1519 1518 1517 1516 1515 1514 1514 1514 1514 1514 1514 1514 1514 1513 1512 1512 1511 1512 1513 1513 1511 1511 1509 1510 1516 1519 1519 1523 1526 1525 1523 1526 1529
1522 1521 1521 1521 1521 1521 1521 1521 1520 1519 1519 1518 1516 1515 1514 1513 1512 1511 1510 1510 1510 1511 1510 1508 1507 1506 1508 1508 1508 1507 1508 1508 1504 1504 1509 1512 1522 1527 1523 1519 1520 1523 1526
1522 1521 1521 1521 1520 1520 1519 1519 1518 1517 1517 1516 1515 1513 1512 1511 1510 1509 1508 1507 1507 1507 1506 1505 1503 1502 1504 1501 1500 1500 1501 1505 1502 1497 1502 1507 1515 1518 1518 1516 1517 1520 1523
1523 1521 1521 1520 1520 1519 1518 1518 1517 1516 1515 1514 1512 1510 1509 1507 1506 1505 1505 1503 1503 1503 1503 1501 1498 1497 1496 1492 1491 1490 1497 1498 1494 1494 1495 1501 1503 1506 1511 1515 1513 1513 1518
1523 1521 1520 1519 1518 1518 1516 1515 1514 1513 1512 1511 1509 1507 1505 1503 1502 1500 1499 1498 1498 1497 1497 1495 1494 1493 1491 1485 1485 1485 1490 1492 1492 1484 1487 1490 1499 1503 1509 1511 1509 1507 1512
1522 1520 1519 1518 1517 1516 1515 1513 1512 1511 1509 1508 1506 1504 1502 1499 1498 1495 1495 1493 1491 1489 1489 1489 1489 1489 1487 1482 1479 1479 1483 1478 1487 1487 1484 1487 1493 1493 1504 1509 1506 1504 1508
1522 1520 1519 1517 1516 1515 1513 1511 1509 1508 1506 1505 1503 1501 1499 1495 1494 1491 1489 1487 1485 1483 1482 1481 1482 1483 1484 1481 1479 1480 1478 1478 1483 1486 1482 1483 1487 1490 1489 1501 1501 1500 1502
1521 1520 1519 1518 1517 1515 1513 1511 1509 1507 1505 1502 1500 1498 1496 1491 1487 1484 1482 1481 1479 1476 1475 1475 1475 1477 1477 1478 1478 1476 1476 1475 1475 1476 1476 1475 1477 1481 1487 1488 1493 1492 1496
1521 1519 1518 1517 1516 1514 1512 1510 1507 1505 1502 1500 1497 1494 1491 1488 1484 1479 1476 1474 1473 1471 1469 1468 1467 1467 1468 1470 1471 1472 1472 1469 1467 1469 1468 1465 1465 1470 1477 1479 1483 1485 1491
1521 1519 1518 1516 1513 1511 1508 1506 1503 1500 1498 1495 1493 1491 1486 1482 1479 1474 1470 1467 1465 1464 1463 1461 1460 1459 1458 1462 1462 1463 1464 1464 1462 1460 1460 1458 1457 1457 1462 1468 1473 1480 1484
1520 1519 1517 1515 1512 1510 1507 1505 1503 1499 1496 1492 1490 1485 1482 1476 1471 1467 1464 1461 1459 1456 1456 1455 1454 1453 1452 1455 1456 1457 1455 1455 1453 1453 1453 1452 1451 1453 1456 1460 1467 1472 1476
1520 1518 1516 1514 1512 1509 1506 1503 1500 1497 1493 1488 1483 1479 1474 1470 1466 1463 1459 1457 1454 1451 1449 1448 1449 1449 1446 1446 1450 1454 1450 1447 1449 1447 1445 1446 1446 1446 1448 1452 1457 1463 1467
1519 1517 1515 1513 1511 1508 1504 1500 1497 1493 1489 1485 1480 1474 1469 1465 1461 1458 1454 1452 1448 1445 1444 1442 1442 1442 1442 1439 1441 1443 1444 1446 1444 1442 1440 1441 1442 1442 1442 1443 1448 1452 1458
1517 1516 1514 1513 1511 1506 1503 1500 1496 1492 1488 1482 1477 1471 1467 1462 1458 1454 1451 1447 1443 1440 1437 1436 1435 1435 1435 1434 1435 1436 1435 1437 1439 1441 1437 1434 1437 1438 1437 1438 1440 1444 1447
1516 1515 1514 1512 1510 1505 1502 1499 1494 1490 1485 1480 1475 1469 1464 1460 1455 1451 1447 1443 1439 1434 1431 1428 1427 1427 1427 1427 1428 1430 1431 1433 1433 1434 1432 1432 1431 1431 1434 1436 1436 1438 1440